Time,TemperatureF,DewpointF,PressureIn,WindDirection,WindDirectionDegrees,WindSpeedMPH,WindSpeedGustMPH,Humidity,HourlyPrecipIn,Conditions,Clouds,dailyrainin,SoftwareType,DateUTC
2013-03-31 00:00:00,58.3,55.9,30.20,North,0,0.0,0.0,92,0.00,,,0.00,meteohub,2013-03-31 04:00:00,
2013-03-31 00:02:00,58.3,55.9,30.19,North,0,0.0,0.0,92,0.00,,,0.00,meteohub,2013-03-31 04:02:00,
2013-03-31 00:03:00,58.3,55.9,30.19,North,0,0.0,0.0,92,0.00,,,0.00,meteohub,2013-03-31 04:03:00,
2013-03-31 00:06:00,58.3,55.9,30.19,North,0,0.0,0.0,92,0.00,,,0.00,meteohub,2013-03-31 04:06:00,
2013-03-31 00:11:00,57.9,55.6,30.19,North,0,0.0,0.0,92,0.00,,,0.00,meteohub,2013-03-31 04:11:00,
2013-03-31 00:16:00,57.7,55.4,30.19,North,0,0.0,0.0,92,0.00,,,0.00,meteohub,2013-03-31 04:16:00,
2013-03-31 00:21:00,57.7,55.4,30.19,North,0,2.0,0.0,92,0.00,,,0.00,meteohub,2013-03-31 04:21:00,
2013-03-31 00:27:00,57.7,55.8,30.19,North,0,2.0,2.0,93,0.00,,,0.00,meteohub,2013-03-31 04:27:00,
2013-03-31 00:32:00,57.7,55.8,30.19,North,0,2.0,2.0,93,0.00,,,0.00,meteohub,2013-03-31 04:32:00,
2013-03-31 00:37:00,57.7,55.9,30.19,North,0,0.0,2.0,94,0.00,,,0.00,meteohub,2013-03-31 04:37:00,
2013-03-31 00:42:00,57.6,55.8,30.19,North,0,0.0,2.0,94,0.00,,,0.00,meteohub,2013-03-31 04:42:00,
2013-03-31 00:47:00,57.6,55.8,30.19,North,0,0.0,2.0,94,0.00,,,0.00,meteohub,2013-03-31 04:47:00,
2013-03-31 00:53:00,57.6,55.8,30.19,North,0,0.0,0.0,94,0.00,,,0.00,meteohub,2013-03-31 04:53:00,
2013-03-31 00:58:00,57.4,55.6,30.19,North,0,0.0,0.0,94,0.00,,,0.00,meteohub,2013-03-31 04:58:00,
2013-03-31 01:03:00,57.4,55.9,30.19,North,0,0.0,1.0,95,0.00,,,0.00,meteohub,2013-03-31 05:03:00,
2013-03-31 01:08:00,57.2,55.8,30.19,North,0,1.0,1.0,95,0.00,,,0.00,meteohub,2013-03-31 05:08:00,
2013-03-31 01:13:00,57.0,55.9,30.19,North,0,0.0,1.0,96,0.00,,,0.00,meteohub,2013-03-31 05:13:00,
2013-03-31 01:19:00,56.8,55.8,30.19,North,0,0.0,1.0,96,0.00,,,0.00,meteohub,2013-03-31 05:19:00,
2013-03-31 01:24:00,56.8,55.8,30.18,North,0,0.0,1.0,96,0.00,,,0.00,meteohub,2013-03-31 05:24:00,
2013-03-31 01:29:00,56.8,55.8,30.18,North,0,0.0,1.0,96,0.00,,,0.00,meteohub,2013-03-31 05:29:00,
2013-03-31 01:34:00,56.7,55.6,30.18,North,0,0.0,1.0,96,0.00,,,0.00,meteohub,2013-03-31 05:34:00,
2013-03-31 01:39:00,56.5,55.4,30.18,North,0,0.0,1.0,96,0.00,,,0.00,meteohub,2013-03-31 05:39:00,
2013-03-31 01:44:00,56.5,55.4,30.18,North,0,0.0,1.0,96,0.00,,,0.00,meteohub,2013-03-31 05:44:00,
2013-03-31 01:49:00,56.3,55.2,30.17,North,0,0.0,1.0,96,0.00,,,0.00,meteohub,2013-03-31 05:49:00,
2013-03-31 01:55:00,56.3,55.2,30.17,North,0,2.0,2.0,96,0.00,,,0.00,meteohub,2013-03-31 05:55:00,
2013-03-31 02:00:00,56.1,55.0,30.17,North,0,0.0,2.0,96,0.00,,,0.00,meteohub,2013-03-31 06:00:00,
2013-03-31 02:05:00,56.1,55.2,30.18,North,0,0.0,2.0,97,0.00,,,0.00,meteohub,2013-03-31 06:05:00,
2013-03-31 02:10:00,55.9,54.9,30.18,North,0,0.0,2.0,96,0.00,,,0.00,meteohub,2013-03-31 06:10:00,
2013-03-31 02:15:00,55.9,54.9,30.17,North,0,0.0,1.0,96,0.00,,,0.00,meteohub,2013-03-31 06:15:00,
2013-03-31 02:21:00,55.9,54.9,30.17,North,0,0.0,0.0,96,0.00,,,0.00,meteohub,2013-03-31 06:21:00,
2013-03-31 02:26:00,55.8,54.9,30.17,North,0,0.0,1.0,97,0.00,,,0.00,meteohub,2013-03-31 06:26:00,
2013-03-31 02:31:00,55.8,54.9,30.17,North,0,0.0,1.0,97,0.00,,,0.00,meteohub,2013-03-31 06:31:00,
2013-03-31 02:36:00,55.9,55.0,30.17,North,0,0.0,1.0,97,0.00,,,0.00,meteohub,2013-03-31 06:36:00,
2013-03-31 02:42:00,55.8,54.9,30.17,North,0,0.0,1.0,97,0.00,,,0.00,meteohub,2013-03-31 06:42:00,
2013-03-31 02:47:00,55.6,54.7,30.17,North,0,0.0,1.0,97,0.00,,,0.00,meteohub,2013-03-31 06:47:00,
2013-03-31 02:52:00,55.8,54.9,30.17,North,0,0.0,0.0,97,0.00,,,0.00,meteohub,2013-03-31 06:52:00,
2013-03-31 02:57:00,55.8,54.9,30.17,North,0,0.0,0.0,97,0.00,,,0.00,meteohub,2013-03-31 06:57:00,
2013-03-31 03:02:00,55.6,54.7,30.17,North,0,0.0,0.0,97,0.00,,,0.00,meteohub,2013-03-31 07:02:00,
2013-03-31 03:08:00,55.8,54.9,30.16,North,0,0.0,0.0,97,0.00,,,0.00,meteohub,2013-03-31 07:08:00,
2013-03-31 03:13:00,55.9,55.0,30.16,North,0,1.0,0.0,97,0.00,,,0.00,meteohub,2013-03-31 07:13:00,
2013-03-31 03:18:00,55.9,55.0,30.16,North,0,0.0,1.0,97,0.00,,,0.00,meteohub,2013-03-31 07:18:00,
2013-03-31 03:23:00,56.1,55.2,30.15,North,0,1.0,1.0,97,0.00,,,0.00,meteohub,2013-03-31 07:23:00,
2013-03-31 03:29:00,56.3,55.4,30.16,North,0,0.0,1.0,97,0.00,,,0.00,meteohub,2013-03-31 07:29:00,
2013-03-31 03:34:00,56.5,55.9,30.15,North,0,0.0,1.0,98,0.00,,,0.00,meteohub,2013-03-31 07:34:00,
2013-03-31 03:39:00,56.8,56.3,30.15,NE,45,1.0,1.0,98,0.00,,,0.00,meteohub,2013-03-31 07:39:00,
2013-03-31 03:44:00,57.0,56.5,30.15,North,0,1.0,2.0,98,0.00,,,0.00,meteohub,2013-03-31 07:44:00,
2013-03-31 03:49:00,57.2,56.7,30.15,North,0,0.0,2.0,98,0.00,,,0.00,meteohub,2013-03-31 07:49:00,
2013-03-31 03:55:00,57.4,56.8,30.15,North,0,0.0,2.0,98,0.00,,,0.00,meteohub,2013-03-31 07:55:00,
2013-03-31 04:00:00,57.4,56.8,30.16,North,0,0.0,2.0,98,0.00,,,0.00,meteohub,2013-03-31 08:00:00,
2013-03-31 04:05:00,57.4,56.8,30.15,North,0,0.0,1.0,98,0.00,,,0.00,meteohub,2013-03-31 08:05:00,
2013-03-31 04:10:00,57.6,57.0,30.15,North,0,0.0,0.0,98,0.00,,,0.00,meteohub,2013-03-31 08:10:00,
2013-03-31 04:15:00,57.6,57.0,30.15,North,0,0.0,0.0,98,0.00,,,0.00,meteohub,2013-03-31 08:15:00,
2013-03-31 04:20:00,57.4,56.8,30.15,North,0,0.0,0.0,98,0.00,,,0.00,meteohub,2013-03-31 08:20:00,
2013-03-31 04:25:00,57.2,56.7,30.15,North,0,0.0,0.0,98,0.00,,,0.00,meteohub,2013-03-31 08:25:00,
2013-03-31 04:31:00,57.2,56.7,30.15,North,0,0.0,0.0,98,0.00,,,0.00,meteohub,2013-03-31 08:31:00,
2013-03-31 04:36:00,57.2,56.7,30.15,North,0,0.0,0.0,98,0.00,,,0.00,meteohub,2013-03-31 08:36:00,
2013-03-31 04:41:00,57.2,56.7,30.14,North,0,0.0,0.0,98,0.00,,,0.00,meteohub,2013-03-31 08:41:00,
2013-03-31 04:46:00,57.0,56.5,30.14,North,0,0.0,0.0,98,0.00,,,0.00,meteohub,2013-03-31 08:46:00,
2013-03-31 04:52:00,57.0,56.5,30.14,North,0,0.0,0.0,98,0.00,,,0.00,meteohub,2013-03-31 08:52:00,
2013-03-31 04:57:00,56.8,56.3,30.14,North,0,0.0,0.0,98,0.00,,,0.00,meteohub,2013-03-31 08:57:00,
2013-03-31 05:02:00,56.8,56.3,30.14,North,0,0.0,0.0,98,0.00,,,0.00,meteohub,2013-03-31 09:02:00,
2013-03-31 05:07:00,56.8,56.3,30.14,North,0,0.0,0.0,98,0.00,,,0.00,meteohub,2013-03-31 09:07:00,
2013-03-31 05:12:00,56.5,55.9,30.14,North,0,0.0,0.0,98,0.00,,,0.00,meteohub,2013-03-31 09:12:00,
2013-03-31 05:17:00,56.5,55.9,30.14,North,0,0.0,0.0,98,0.00,,,0.00,meteohub,2013-03-31 09:17:00,
2013-03-31 05:22:00,56.3,55.8,30.15,North,0,0.0,0.0,98,0.00,,,0.00,meteohub,2013-03-31 09:22:00,
2013-03-31 05:27:00,56.1,55.6,30.15,North,0,0.0,0.0,98,0.00,,,0.00,meteohub,2013-03-31 09:27:00,
2013-03-31 05:32:00,56.3,55.8,30.15,North,0,0.0,0.0,98,0.00,,,0.00,meteohub,2013-03-31 09:32:00,
2013-03-31 05:37:00,56.1,55.6,30.15,North,0,0.0,0.0,98,0.00,,,0.00,meteohub,2013-03-31 09:37:00,
2013-03-31 05:42:00,56.1,55.6,30.15,North,0,0.0,0.0,98,0.00,,,0.00,meteohub,2013-03-31 09:42:00,
2013-03-31 05:48:00,56.1,55.6,30.15,North,0,1.0,0.0,98,0.00,,,0.00,meteohub,2013-03-31 09:48:00,
2013-03-31 05:53:00,56.1,55.6,30.15,North,0,0.0,1.0,98,0.00,,,0.00,meteohub,2013-03-31 09:53:00,
2013-03-31 05:58:00,55.9,55.4,30.15,North,0,0.0,1.0,98,0.00,,,0.00,meteohub,2013-03-31 09:58:00,
2013-03-31 06:03:00,55.9,55.4,30.15,North,0,0.0,1.0,98,0.00,,,0.00,meteohub,2013-03-31 10:03:00,
2013-03-31 06:08:00,55.9,55.4,30.15,North,0,0.0,1.0,98,0.00,,,0.00,meteohub,2013-03-31 10:08:00,
2013-03-31 06:14:00,55.8,55.2,30.15,North,0,0.0,0.0,98,0.00,,,0.00,meteohub,2013-03-31 10:14:00,
2013-03-31 06:19:00,55.6,55.0,30.15,North,0,0.0,0.0,98,0.00,,,0.00,meteohub,2013-03-31 10:19:00,
2013-03-31 06:24:00,55.6,55.0,30.16,North,0,0.0,0.0,98,0.00,,,0.00,meteohub,2013-03-31 10:24:00,
2013-03-31 06:29:00,55.6,55.0,30.16,North,0,0.0,0.0,98,0.00,,,0.00,meteohub,2013-03-31 10:29:00,
2013-03-31 06:34:00,55.4,54.9,30.17,North,0,0.0,0.0,98,0.00,,,0.00,meteohub,2013-03-31 10:34:00,
2013-03-31 06:39:00,55.4,54.9,30.17,North,0,0.0,0.0,98,0.00,,,0.00,meteohub,2013-03-31 10:39:00,
2013-03-31 06:45:00,55.4,54.9,30.17,North,0,0.0,0.0,98,0.00,,,0.00,meteohub,2013-03-31 10:45:00,
2013-03-31 06:50:00,55.2,54.7,30.17,North,0,1.0,0.0,98,0.00,,,0.00,meteohub,2013-03-31 10:50:00,
2013-03-31 06:55:00,55.0,54.7,30.17,North,0,0.0,1.0,99,0.00,,,0.00,meteohub,2013-03-31 10:55:00,
2013-03-31 07:00:00,55.0,54.7,30.17,North,0,0.0,1.0,99,0.00,,,0.00,meteohub,2013-03-31 11:00:00,
2013-03-31 07:05:00,55.0,54.7,30.17,North,0,0.0,0.0,99,0.00,,,0.00,meteohub,2013-03-31 11:05:00,
2013-03-31 07:11:00,54.7,54.1,30.17,North,0,0.0,0.0,98,0.00,,,0.00,meteohub,2013-03-31 11:11:00,
2013-03-31 07:16:00,54.7,54.3,30.18,North,0,0.0,0.0,99,0.00,,,0.00,meteohub,2013-03-31 11:16:00,
2013-03-31 07:21:00,54.7,54.3,30.18,North,0,0.0,0.0,99,0.00,,,0.00,meteohub,2013-03-31 11:21:00,
2013-03-31 07:27:00,54.9,54.5,30.18,North,0,0.0,0.0,99,0.00,,,0.00,meteohub,2013-03-31 11:27:00,
2013-03-31 07:32:00,55.0,54.7,30.17,North,0,0.0,0.0,99,0.00,,,0.00,meteohub,2013-03-31 11:32:00,
2013-03-31 07:37:00,55.0,54.7,30.18,North,0,0.0,0.0,99,0.00,,,0.00,meteohub,2013-03-31 11:37:00,
2013-03-31 07:42:00,55.0,54.7,30.18,North,0,0.0,0.0,99,0.00,,,0.00,meteohub,2013-03-31 11:42:00,
2013-03-31 07:47:00,55.2,54.9,30.18,North,0,0.0,0.0,99,0.00,,,0.00,meteohub,2013-03-31 11:47:00,
2013-03-31 07:52:00,55.4,55.0,30.18,North,0,0.0,0.0,99,0.00,,,0.00,meteohub,2013-03-31 11:52:00,
2013-03-31 07:57:00,56.3,55.9,30.19,North,0,0.0,0.0,99,0.00,,,0.00,meteohub,2013-03-31 11:57:00,
2013-03-31 08:02:00,56.8,56.5,30.19,North,0,0.0,0.0,99,0.00,,,0.00,meteohub,2013-03-31 12:02:00,
2013-03-31 08:07:00,56.8,56.5,30.18,North,0,1.0,0.0,99,0.00,,,0.00,meteohub,2013-03-31 12:07:00,
2013-03-31 08:12:00,56.7,56.3,30.18,North,0,1.0,1.0,99,0.00,,,0.00,meteohub,2013-03-31 12:12:00,
2013-03-31 08:17:00,56.8,56.5,30.18,North,0,0.0,1.0,99,0.00,,,0.00,meteohub,2013-03-31 12:17:00,
2013-03-31 08:23:00,57.7,57.4,30.18,North,0,0.0,1.0,99,0.00,,,0.00,meteohub,2013-03-31 12:23:00,
2013-03-31 08:28:00,59.2,58.8,30.18,North,0,0.0,1.0,99,0.00,,,0.00,meteohub,2013-03-31 12:28:00,
2013-03-31 08:33:00,60.3,59.9,30.18,North,0,2.0,2.0,99,0.00,,,0.00,meteohub,2013-03-31 12:33:00,
2013-03-31 08:38:00,61.9,60.8,30.19,NW,315,2.0,2.0,96,0.00,,,0.00,meteohub,2013-03-31 12:38:00,
2013-03-31 08:44:00,63.0,60.6,30.19,North,0,2.0,2.0,92,0.00,,,0.00,meteohub,2013-03-31 12:44:00,
2013-03-31 08:49:00,63.9,59.5,30.18,NW,315,2.0,3.0,86,0.00,,,0.00,meteohub,2013-03-31 12:49:00,
2013-03-31 08:54:00,64.4,58.8,30.18,West,270,2.0,4.0,82,0.00,,,0.00,meteohub,2013-03-31 12:54:00,
2013-03-31 08:59:00,64.8,58.1,30.18,North,0,3.0,4.0,79,0.00,,,0.00,meteohub,2013-03-31 12:59:00,
2013-03-31 09:04:00,65.3,57.9,30.18,East,90,2.0,4.0,77,0.00,,,0.00,meteohub,2013-03-31 13:04:00,
2013-03-31 09:09:00,65.7,57.2,30.18,NE,45,3.0,4.0,74,0.00,,,0.00,meteohub,2013-03-31 13:09:00,
2013-03-31 09:14:00,66.6,57.6,30.18,North,0,3.0,4.0,73,0.00,,,0.00,meteohub,2013-03-31 13:14:00,
2013-03-31 09:20:00,66.7,57.0,30.18,NE,45,4.0,4.0,71,0.00,,,0.00,meteohub,2013-03-31 13:20:00,
2013-03-31 09:25:00,67.6,57.9,30.18,North,0,4.0,8.0,71,0.00,,,0.00,meteohub,2013-03-31 13:25:00,
2013-03-31 09:30:00,68.5,57.6,30.18,NE,45,4.0,8.0,68,0.00,,,0.00,meteohub,2013-03-31 13:30:00,
2013-03-31 09:35:00,69.1,56.8,30.18,North,0,4.0,7.0,65,0.00,,,0.00,meteohub,2013-03-31 13:35:00,
2013-03-31 09:41:00,69.6,57.4,30.18,NW,315,4.0,7.0,65,0.00,,,0.00,meteohub,2013-03-31 13:41:00,
2013-03-31 09:47:00,70.0,57.2,30.18,North,0,4.0,8.0,64,0.00,,,0.00,meteohub,2013-03-31 13:47:00,
2013-03-31 09:52:00,70.0,56.3,30.18,WNW,293,6.0,8.0,62,0.00,,,0.00,meteohub,2013-03-31 13:52:00,
2013-03-31 09:57:00,70.3,56.7,30.18,NE,45,4.0,8.0,62,0.00,,,0.00,meteohub,2013-03-31 13:57:00,
2013-03-31 10:02:00,71.2,56.1,30.18,North,0,6.0,8.0,59,0.00,,,0.00,meteohub,2013-03-31 14:02:00,
2013-03-31 10:08:00,72.5,55.9,30.18,NW,315,6.0,7.0,56,0.00,,,0.00,meteohub,2013-03-31 14:08:00,
2013-03-31 10:13:00,72.7,55.0,30.18,NE,45,9.0,10.0,54,0.00,,,0.00,meteohub,2013-03-31 14:13:00,
2013-03-31 10:18:00,72.5,55.4,30.18,NE,45,8.0,10.0,55,0.00,,,0.00,meteohub,2013-03-31 14:18:00,
2013-03-31 10:23:00,73.2,55.6,30.18,North,0,4.0,10.0,54,0.00,,,0.00,meteohub,2013-03-31 14:23:00,
2013-03-31 10:28:00,73.6,54.9,30.18,East,90,4.0,11.0,52,0.00,,,0.00,meteohub,2013-03-31 14:28:00,
2013-03-31 10:34:00,74.3,55.6,30.19,East,90,4.0,11.0,52,0.00,,,0.00,meteohub,2013-03-31 14:34:00,
2013-03-31 10:39:00,75.0,54.5,30.19,North,0,4.0,8.0,49,0.00,,,0.00,meteohub,2013-03-31 14:39:00,
2013-03-31 10:44:00,75.6,55.6,30.18,West,270,4.0,8.0,50,0.00,,,0.00,meteohub,2013-03-31 14:44:00,
2013-03-31 10:50:00,75.7,55.8,30.18,SW,225,5.0,8.0,50,0.00,,,0.00,meteohub,2013-03-31 14:50:00,
2013-03-31 10:54:00,76.1,53.8,30.18,NNE,23,8.0,8.0,46,0.00,,,0.00,meteohub,2013-03-31 14:54:00,
2013-03-31 11:00:00,75.7,54.7,30.18,North,0,5.0,10.0,48,0.00,,,0.00,meteohub,2013-03-31 15:00:00,
2013-03-31 11:05:00,75.9,54.9,30.18,East,90,4.0,10.0,48,0.00,,,0.00,meteohub,2013-03-31 15:05:00,
2013-03-31 11:10:00,75.7,54.7,30.18,SW,225,7.0,10.0,48,0.00,,,0.00,meteohub,2013-03-31 15:10:00,
2013-03-31 11:15:00,75.9,54.9,30.18,NW,315,5.0,9.0,48,0.00,,,0.00,meteohub,2013-03-31 15:15:00,
2013-03-31 11:20:00,76.6,55.4,30.18,North,0,6.0,8.0,48,0.00,,,0.00,meteohub,2013-03-31 15:20:00,
2013-03-31 11:26:00,77.2,55.4,30.17,North,0,5.0,7.0,47,0.00,,,0.00,meteohub,2013-03-31 15:26:00,
2013-03-31 11:31:00,77.2,55.4,30.17,West,270,4.0,7.0,47,0.00,,,0.00,meteohub,2013-03-31 15:31:00,
2013-03-31 11:37:00,77.0,54.0,30.18,East,90,4.0,11.0,45,0.00,,,0.00,meteohub,2013-03-31 15:37:00,
2013-03-31 11:42:00,76.8,54.5,30.17,North,0,4.0,11.0,46,0.00,,,0.00,meteohub,2013-03-31 15:42:00,
2013-03-31 11:47:00,76.6,53.8,30.17,North,0,8.0,11.0,45,0.00,,,0.00,meteohub,2013-03-31 15:47:00,
2013-03-31 11:52:00,76.3,54.0,30.17,NE,45,4.0,8.0,46,0.00,,,0.00,meteohub,2013-03-31 15:52:00,
2013-03-31 11:57:00,75.9,54.3,30.17,NW,315,6.0,8.0,47,0.00,,,0.00,meteohub,2013-03-31 15:57:00,
2013-03-31 12:02:00,75.9,54.9,30.17,East,90,3.0,8.0,48,0.00,,,0.00,meteohub,2013-03-31 16:02:00,
2013-03-31 12:07:00,76.3,52.7,30.17,North,0,6.0,7.0,44,0.00,,,0.00,meteohub,2013-03-31 16:07:00,
2013-03-31 12:12:00,76.6,53.1,30.17,NE,45,7.0,10.0,44,0.00,,,0.00,meteohub,2013-03-31 16:12:00,
2013-03-31 12:18:00,77.5,52.0,30.17,North,0,4.0,11.0,41,0.00,,,0.00,meteohub,2013-03-31 16:18:00,
2013-03-31 12:23:00,77.7,48.6,30.17,North,0,4.0,11.0,36,0.00,,,0.00,meteohub,2013-03-31 16:23:00,
2013-03-31 12:28:00,78.1,51.1,30.16,West,270,4.0,11.0,39,0.00,,,0.00,meteohub,2013-03-31 16:28:00,
2013-03-31 12:33:00,78.1,51.1,30.17,North,0,4.0,11.0,39,0.00,,,0.00,meteohub,2013-03-31 16:33:00,
2013-03-31 12:38:00,78.3,51.3,30.17,North,0,6.0,8.0,39,0.00,,,0.00,meteohub,2013-03-31 16:38:00,
2013-03-31 12:43:00,78.4,52.2,30.17,East,90,3.0,8.0,40,0.00,,,0.00,meteohub,2013-03-31 16:43:00,
2013-03-31 12:49:00,78.8,47.3,30.16,North,0,8.0,12.0,33,0.00,,,0.00,meteohub,2013-03-31 16:49:00,
2013-03-31 12:54:00,79.0,47.5,30.16,NE,45,7.0,12.0,33,0.00,,,0.00,meteohub,2013-03-31 16:54:00,
2013-03-31 12:59:00,78.4,46.9,30.15,NE,45,7.0,12.0,33,0.00,,,0.00,meteohub,2013-03-31 16:59:00,
2013-03-31 13:05:00,78.4,50.0,30.15,NE,45,6.0,12.0,37,0.00,,,0.00,meteohub,2013-03-31 17:05:00,
2013-03-31 13:10:00,78.3,51.3,30.15,West,270,7.0,8.0,39,0.00,,,0.00,meteohub,2013-03-31 17:10:00,
2013-03-31 13:15:00,78.4,52.7,30.14,SW,225,4.0,8.0,41,0.00,,,0.00,meteohub,2013-03-31 17:15:00,
2013-03-31 13:20:00,78.8,51.8,30.14,North,0,10.0,11.0,39,0.00,,,0.00,meteohub,2013-03-31 17:20:00,
2013-03-31 13:25:00,79.2,49.8,30.14,North,0,8.0,11.0,36,0.00,,,0.00,meteohub,2013-03-31 17:25:00,
2013-03-31 13:31:00,78.6,51.6,30.14,East,90,8.0,11.0,39,0.00,,,0.00,meteohub,2013-03-31 17:31:00,
2013-03-31 13:36:00,77.7,47.8,30.13,NE,45,7.0,10.0,35,0.00,,,0.00,meteohub,2013-03-31 17:36:00,
2013-03-31 13:42:00,77.7,50.7,30.13,North,0,5.0,9.0,39,0.00,,,0.00,meteohub,2013-03-31 17:42:00,
2013-03-31 13:47:00,77.9,51.6,30.13,East,90,6.0,9.0,40,0.00,,,0.00,meteohub,2013-03-31 17:47:00,
2013-03-31 13:52:00,77.2,52.9,30.13,North,0,8.0,9.0,43,0.00,,,0.00,meteohub,2013-03-31 17:52:00,
2013-03-31 13:57:00,76.6,54.3,30.12,NW,315,4.0,10.0,46,0.00,,,0.00,meteohub,2013-03-31 17:57:00,
2013-03-31 14:02:00,76.6,55.4,30.12,NE,45,4.0,10.0,48,0.00,,,0.00,meteohub,2013-03-31 18:02:00,
2013-03-31 14:07:00,77.0,55.8,30.12,NE,45,7.0,10.0,48,0.00,,,0.00,meteohub,2013-03-31 18:07:00,
2013-03-31 14:12:00,76.5,56.5,30.12,NE,45,5.0,10.0,50,0.00,,,0.00,meteohub,2013-03-31 18:12:00,
2013-03-31 14:17:00,76.3,56.3,30.12,East,90,4.0,8.0,50,0.00,,,0.00,meteohub,2013-03-31 18:17:00,
2013-03-31 14:22:00,76.8,57.4,30.11,NE,45,4.0,8.0,51,0.00,,,0.00,meteohub,2013-03-31 18:22:00,
2013-03-31 14:27:00,77.2,56.5,30.10,North,0,4.0,8.0,49,0.00,,,0.00,meteohub,2013-03-31 18:27:00,
2013-03-31 14:33:00,77.7,57.0,30.10,NE,45,8.0,8.0,49,0.00,,,0.00,meteohub,2013-03-31 18:33:00,
2013-03-31 14:38:00,78.3,56.3,30.10,North,0,5.0,8.0,47,0.00,,,0.00,meteohub,2013-03-31 18:38:00,
2013-03-31 14:43:00,78.4,55.4,30.09,East,90,8.0,11.0,45,0.00,,,0.00,meteohub,2013-03-31 18:43:00,
2013-03-31 14:48:00,78.3,54.5,30.09,NE,45,9.0,11.0,44,0.00,,,0.00,meteohub,2013-03-31 18:48:00,
2013-03-31 14:54:00,78.8,55.0,30.08,NE,45,7.0,11.0,44,0.00,,,0.00,meteohub,2013-03-31 18:54:00,
2013-03-31 14:59:00,78.4,54.7,30.08,East,90,8.0,10.0,44,0.00,,,0.00,meteohub,2013-03-31 18:59:00,
2013-03-31 15:04:00,77.5,54.5,30.07,North,0,7.0,12.0,45,0.00,,,0.00,meteohub,2013-03-31 19:04:00,
2013-03-31 15:09:00,77.0,55.2,30.07,North,0,8.0,12.0,47,0.00,,,0.00,meteohub,2013-03-31 19:09:00,
2013-03-31 15:15:00,77.4,55.6,30.07,SE,135,6.0,9.0,47,0.00,,,0.00,meteohub,2013-03-31 19:15:00,
2013-03-31 15:20:00,76.8,55.6,30.08,East,90,9.0,9.0,48,0.00,,,0.00,meteohub,2013-03-31 19:20:00,
2013-03-31 15:25:00,76.3,55.8,30.08,East,90,5.0,9.0,49,0.00,,,0.00,meteohub,2013-03-31 19:25:00,
2013-03-31 15:30:00,76.5,57.0,30.07,East,90,4.0,9.0,51,0.00,,,0.00,meteohub,2013-03-31 19:30:00,
2013-03-31 15:35:00,76.5,56.5,30.07,East,90,4.0,9.0,50,0.00,,,0.00,meteohub,2013-03-31 19:35:00,
2013-03-31 15:40:00,76.3,56.3,30.07,NE,45,4.0,9.0,50,0.00,,,0.00,meteohub,2013-03-31 19:40:00,
2013-03-31 15:45:00,76.6,57.2,30.07,East,90,5.0,8.0,51,0.00,,,0.00,meteohub,2013-03-31 19:45:00,
2013-03-31 15:50:00,77.9,56.7,30.07,NE,45,5.0,9.0,48,0.00,,,0.00,meteohub,2013-03-31 19:50:00,
2013-03-31 15:56:00,77.7,56.5,30.07,NW,315,7.0,9.0,48,0.00,,,0.00,meteohub,2013-03-31 19:56:00,
2013-03-31 16:01:00,77.9,56.7,30.07,East,90,11.0,11.0,48,0.00,,,0.00,meteohub,2013-03-31 20:01:00,
2013-03-31 16:06:00,78.1,56.3,30.07,NE,45,7.0,11.0,47,0.00,,,0.00,meteohub,2013-03-31 20:06:00,
2013-03-31 16:12:00,78.3,57.0,30.06,East,90,7.0,11.0,48,0.00,,,0.00,meteohub,2013-03-31 20:12:00,
2013-03-31 16:17:00,77.5,56.3,30.06,East,90,9.0,11.0,48,0.00,,,0.00,meteohub,2013-03-31 20:17:00,
2013-03-31 16:22:00,76.6,57.2,30.06,NE,45,8.0,11.0,51,0.00,,,0.00,meteohub,2013-03-31 20:22:00,
2013-03-31 16:27:00,75.9,57.0,30.06,NNE,23,6.0,11.0,52,0.00,,,0.00,meteohub,2013-03-31 20:27:00,
2013-03-31 16:32:00,75.4,57.0,30.06,NE,45,9.0,11.0,53,0.00,,,0.00,meteohub,2013-03-31 20:32:00,
2013-03-31 16:38:00,75.0,57.2,30.05,NE,45,5.0,11.0,54,0.00,,,0.00,meteohub,2013-03-31 20:38:00,
2013-03-31 16:43:00,75.0,57.2,30.05,East,90,6.0,11.0,54,0.00,,,0.00,meteohub,2013-03-31 20:43:00,
2013-03-31 16:48:00,75.6,57.7,30.05,North,0,9.0,11.0,54,0.00,,,0.00,meteohub,2013-03-31 20:48:00,
2013-03-31 16:53:00,75.9,58.1,30.05,NE,45,8.0,9.0,54,0.00,,,0.00,meteohub,2013-03-31 20:53:00,
2013-03-31 16:59:00,75.6,58.3,30.05,NW,315,9.0,9.0,55,0.00,,,0.00,meteohub,2013-03-31 20:59:00,
2013-03-31 17:04:00,75.9,58.6,30.05,East,90,8.0,11.0,55,0.00,,,0.00,meteohub,2013-03-31 21:04:00,
2013-03-31 17:09:00,76.3,57.9,30.05,East,90,9.0,11.0,53,0.00,,,0.00,meteohub,2013-03-31 21:09:00,
2013-03-31 17:14:00,75.9,58.6,30.05,North,0,3.0,11.0,55,0.00,,,0.00,meteohub,2013-03-31 21:14:00,
2013-03-31 17:19:00,76.3,59.0,30.05,East,90,7.0,9.0,55,0.00,,,0.00,meteohub,2013-03-31 21:19:00,
2013-03-31 17:24:00,76.1,58.8,30.05,East,90,8.0,9.0,55,0.00,,,0.00,meteohub,2013-03-31 21:24:00,
2013-03-31 17:29:00,77.7,59.2,30.05,SE,135,8.0,12.0,53,0.00,,,0.00,meteohub,2013-03-31 21:29:00,
2013-03-31 17:35:00,77.9,58.8,30.04,East,90,5.0,12.0,52,0.00,,,0.00,meteohub,2013-03-31 21:35:00,
2013-03-31 17:40:00,77.9,59.4,30.04,NW,315,3.0,12.0,53,0.00,,,0.00,meteohub,2013-03-31 21:40:00,
2013-03-31 17:45:00,76.6,59.2,30.04,East,90,5.0,11.0,55,0.00,,,0.00,meteohub,2013-03-31 21:45:00,
2013-03-31 17:51:00,75.6,59.2,30.05,North,0,3.0,11.0,57,0.00,,,0.00,meteohub,2013-03-31 21:51:00,
2013-03-31 17:56:00,77.5,60.1,30.04,SE,135,8.0,11.0,55,0.00,,,0.00,meteohub,2013-03-31 21:56:00,
2013-03-31 18:01:00,77.9,59.4,30.04,North,0,8.0,8.0,53,0.00,,,0.00,meteohub,2013-03-31 22:01:00,
2013-03-31 18:07:00,77.7,59.2,30.04,NE,45,6.0,9.0,53,0.00,,,0.00,meteohub,2013-03-31 22:07:00,
2013-03-31 18:12:00,77.7,59.7,30.04,North,0,5.0,9.0,54,0.00,,,0.00,meteohub,2013-03-31 22:12:00,
2013-03-31 18:17:00,77.4,59.4,30.04,NNE,23,6.0,8.0,54,0.00,,,0.00,meteohub,2013-03-31 22:17:00,
2013-03-31 18:22:00,76.6,59.2,30.04,East,90,5.0,8.0,55,0.00,,,0.00,meteohub,2013-03-31 22:22:00,
2013-03-31 18:27:00,75.7,59.0,30.04,East,90,7.0,8.0,56,0.00,,,0.00,meteohub,2013-03-31 22:27:00,
2013-03-31 18:32:00,75.4,59.0,30.04,East,90,5.0,8.0,57,0.00,,,0.00,meteohub,2013-03-31 22:32:00,
2013-03-31 18:38:00,74.7,58.8,30.04,East,90,5.0,7.0,58,0.00,,,0.00,meteohub,2013-03-31 22:38:00,
2013-03-31 18:43:00,74.3,59.0,30.04,NE,45,6.0,9.0,59,0.00,,,0.00,meteohub,2013-03-31 22:43:00,
2013-03-31 18:48:00,74.7,58.8,30.04,North,0,5.0,9.0,58,0.00,,,0.00,meteohub,2013-03-31 22:48:00,
2013-03-31 18:53:00,75.0,59.2,30.04,NE,45,4.0,9.0,58,0.00,,,0.00,meteohub,2013-03-31 22:53:00,
2013-03-31 18:58:00,75.0,59.2,30.04,North,0,5.0,10.0,58,0.00,,,0.00,meteohub,2013-03-31 22:58:00,
2013-03-31 19:03:00,73.9,58.6,30.04,NE,45,4.0,10.0,59,0.00,,,0.00,meteohub,2013-03-31 23:03:00,
2013-03-31 19:08:00,73.0,58.8,30.04,East,90,4.0,10.0,61,0.00,,,0.00,meteohub,2013-03-31 23:08:00,
2013-03-31 19:14:00,72.5,59.2,30.04,NE,45,2.0,8.0,63,0.00,,,0.00,meteohub,2013-03-31 23:14:00,
2013-03-31 19:19:00,72.1,59.4,30.04,NW,315,3.0,8.0,64,0.00,,,0.00,meteohub,2013-03-31 23:19:00,
2013-03-31 19:24:00,71.8,59.4,30.04,NE,45,4.0,7.0,65,0.00,,,0.00,meteohub,2013-03-31 23:24:00,
2013-03-31 19:29:00,71.4,59.5,30.03,North,0,4.0,7.0,66,0.00,,,0.00,meteohub,2013-03-31 23:29:00,
2013-03-31 19:34:00,71.1,59.5,30.03,NE,45,4.0,8.0,67,0.00,,,0.00,meteohub,2013-03-31 23:34:00,
2013-03-31 19:39:00,70.9,59.4,30.03,NE,45,4.0,8.0,67,0.00,,,0.00,meteohub,2013-03-31 23:39:00,
2013-03-31 19:45:00,70.7,59.5,30.03,NE,45,4.0,8.0,68,0.00,,,0.00,meteohub,2013-03-31 23:45:00,
2013-03-31 19:50:00,70.3,59.4,30.03,NE,45,5.0,7.0,68,0.00,,,0.00,meteohub,2013-03-31 23:50:00,
2013-03-31 19:55:00,70.3,59.7,30.03,North,0,4.0,7.0,69,0.00,,,0.00,meteohub,2013-03-31 23:55:00,
2013-03-31 20:00:00,70.2,59.9,30.03,NW,315,4.0,7.0,70,0.00,,,0.00,meteohub,2013-04-01 00:00:00,
2013-03-31 20:05:00,70.0,59.7,30.03,NE,45,3.0,5.0,70,0.00,,,0.00,meteohub,2013-04-01 00:05:00,
2013-03-31 20:11:00,69.8,59.5,30.02,NW,315,3.0,5.0,70,0.00,,,0.00,meteohub,2013-04-01 00:11:00,
2013-03-31 20:16:00,69.8,59.5,30.03,NE,45,4.0,5.0,70,0.00,,,0.00,meteohub,2013-04-01 00:16:00,
2013-03-31 20:21:00,69.8,59.5,30.03,NE,45,4.0,5.0,70,0.00,,,0.00,meteohub,2013-04-01 00:21:00,
2013-03-31 20:26:00,69.6,59.4,30.03,NE,45,2.0,5.0,70,0.00,,,0.00,meteohub,2013-04-01 00:26:00,
2013-03-31 20:32:00,69.6,59.7,30.03,North,0,4.0,4.0,71,0.00,,,0.00,meteohub,2013-04-01 00:32:00,
2013-03-31 20:37:00,69.4,59.5,30.03,NE,45,1.0,5.0,71,0.00,,,0.00,meteohub,2013-04-01 00:37:00,
2013-03-31 20:42:00,69.3,59.9,30.03,NE,45,3.0,5.0,72,0.00,,,0.00,meteohub,2013-04-01 00:42:00,
2013-03-31 20:47:00,69.3,60.3,30.03,NE,45,3.0,4.0,73,0.00,,,0.00,meteohub,2013-04-01 00:47:00,
2013-03-31 20:52:00,69.1,59.7,30.03,North,0,2.0,4.0,72,0.00,,,0.00,meteohub,2013-04-01 00:52:00,
2013-03-31 20:58:00,69.1,60.1,30.03,South,180,2.0,4.0,73,0.00,,,0.00,meteohub,2013-04-01 00:58:00,
2013-03-31 21:03:00,68.9,59.9,30.04,East,90,2.0,3.0,73,0.00,,,0.00,meteohub,2013-04-01 01:03:00,
2013-03-31 21:08:00,68.7,59.7,30.04,North,0,2.0,3.0,73,0.00,,,0.00,meteohub,2013-04-01 01:08:00,
2013-03-31 21:14:00,68.5,59.9,30.03,NE,45,2.0,4.0,74,0.00,,,0.00,meteohub,2013-04-01 01:14:00,
2013-03-31 21:19:00,68.4,59.7,30.03,North,0,2.0,4.0,74,0.00,,,0.00,meteohub,2013-04-01 01:19:00,
2013-03-31 21:24:00,68.4,60.1,30.04,NE,45,2.0,4.0,75,0.00,,,0.00,meteohub,2013-04-01 01:24:00,
2013-03-31 21:29:00,68.2,59.9,30.03,NW,315,2.0,4.0,75,0.00,,,0.00,meteohub,2013-04-01 01:29:00,
2013-03-31 21:34:00,68.2,59.9,30.04,North,0,1.0,3.0,75,0.00,,,0.00,meteohub,2013-04-01 01:34:00,
2013-03-31 21:40:00,67.8,59.5,30.04,North,0,1.0,3.0,75,0.00,,,0.00,meteohub,2013-04-01 01:40:00,
2013-03-31 21:45:00,67.6,60.3,30.04,North,0,2.0,2.0,77,0.00,,,0.00,meteohub,2013-04-01 01:45:00,
2013-03-31 21:50:00,67.8,60.3,30.04,North,0,2.0,2.0,77,0.00,,,0.00,meteohub,2013-04-01 01:50:00,
2013-03-31 21:55:00,68.0,60.4,30.04,NW,315,1.0,2.0,77,0.00,,,0.00,meteohub,2013-04-01 01:55:00,
2013-03-31 22:00:00,68.0,60.4,30.04,NE,45,1.0,2.0,77,0.00,,,0.00,meteohub,2013-04-01 02:00:00,
2013-03-31 22:06:00,68.0,60.4,30.05,NE,45,0.0,2.0,77,0.00,,,0.00,meteohub,2013-04-01 02:06:00,
2013-03-31 22:11:00,68.0,60.4,30.05,West,270,1.0,2.0,77,0.00,,,0.00,meteohub,2013-04-01 02:11:00,
2013-03-31 22:16:00,68.0,60.4,30.05,NW,315,1.0,2.0,77,0.00,,,0.00,meteohub,2013-04-01 02:16:00,
2013-03-31 22:22:00,68.4,60.8,30.05,NE,45,2.0,2.0,77,0.00,,,0.00,meteohub,2013-04-01 02:22:00,
2013-03-31 22:27:00,68.5,61.0,30.05,North,0,3.0,3.0,77,0.00,,,0.00,meteohub,2013-04-01 02:27:00,
2013-03-31 22:32:00,68.5,60.6,30.05,North,0,2.0,3.0,76,0.00,,,0.00,meteohub,2013-04-01 02:32:00,
2013-03-31 22:37:00,68.7,60.8,30.06,North,0,2.0,4.0,76,0.00,,,0.00,meteohub,2013-04-01 02:37:00,
2013-03-31 22:42:00,68.5,61.0,30.06,NE,45,2.0,4.0,77,0.00,,,0.00,meteohub,2013-04-01 02:42:00,
2013-03-31 22:48:00,68.5,61.3,30.06,North,0,2.0,4.0,78,0.00,,,0.00,meteohub,2013-04-01 02:48:00,
2013-03-31 22:53:00,68.7,61.5,30.06,North,0,4.0,4.0,78,0.00,,,0.00,meteohub,2013-04-01 02:53:00,
2013-03-31 22:58:00,68.7,61.5,30.06,SW,225,2.0,4.0,78,0.00,,,0.00,meteohub,2013-04-01 02:58:00,
2013-03-31 23:03:00,68.7,61.9,30.06,NE,45,2.0,4.0,79,0.00,,,0.00,meteohub,2013-04-01 03:03:00,
2013-03-31 23:09:00,68.7,61.9,30.06,NE,45,2.0,4.0,79,0.00,,,0.00,meteohub,2013-04-01 03:09:00,
2013-03-31 23:14:00,68.7,61.9,30.06,North,0,4.0,4.0,79,0.00,,,0.00,meteohub,2013-04-01 03:14:00,
2013-03-31 23:19:00,68.5,62.1,30.05,North,0,5.0,5.0,80,0.00,,,0.00,meteohub,2013-04-01 03:19:00,
2013-03-31 23:24:00,68.5,62.1,30.05,North,0,5.0,5.0,80,0.00,,,0.00,meteohub,2013-04-01 03:24:00,
2013-03-31 23:30:00,68.4,62.2,30.06,North,0,2.0,5.0,81,0.00,,,0.00,meteohub,2013-04-01 03:30:00,
2013-03-31 23:35:00,68.0,62.2,30.06,NE,45,2.0,5.0,82,0.00,,,0.00,meteohub,2013-04-01 03:35:00,
2013-03-31 23:40:00,68.0,62.2,30.06,NE,45,2.0,5.0,82,0.00,,,0.00,meteohub,2013-04-01 03:40:00,
2013-03-31 23:45:00,68.0,62.6,30.06,NE,45,2.0,4.0,83,0.00,,,0.00,meteohub,2013-04-01 03:45:00,
2013-03-31 23:51:00,68.0,62.6,30.06,NE,45,2.0,3.0,83,0.00,,,0.00,meteohub,2013-04-01 03:51:00,
2013-03-31 23:56:00,68.0,62.6,30.05,NE,45,2.0,4.0,83,0.00,,,0.00,meteohub,2013-04-01 03:56:00,